Location: Galliano
(29.4422°N, 90.2993°W)
Time: 21:00:28
(UTC-06:00)

Hubble Space Telescope - Visible Passes

Search period start: 22 February 2018 00:00
Search period end: 04 March 2018 00:00
Orbit: 537 x 541 km, 28.5° (Epoch: 22 February)

Date Brightness Start Highest point End Pass type
(mag) Time Alt. Az. Time Alt. Az. Time Alt. Az.
22 Feb 2.6 04:22:37 30° ESE 04:22:37 30° ESE 04:24:54 10° E visible
22 Feb 0.8 05:57:58 11° W 06:02:01 79° S 06:06:09 10° E visible
23 Feb 3.0 04:12:56 24° E 04:12:56 24° E 04:14:40 10° E visible
23 Feb 0.8 05:48:18 14° W 05:51:45 79° S 05:55:53 10° E visible
24 Feb 3.4 04:03:15 18° E 04:03:15 18° E 04:04:26 10° E visible
24 Feb 0.8 05:38:36 19° W 05:41:30 76° S 05:45:37 10° E visible
25 Feb 3.8 03:53:33 14° E 03:53:33 14° E 03:54:11 10° E visible
25 Feb 0.8 05:28:54 24° W 05:31:14 70° S 05:35:21 10° ESE visible
26 Feb 4.1 03:43:51 10° E 03:43:51 10° E 03:43:55 10° E visible
26 Feb 0.9 05:19:12 32° W 05:20:58 64° S 05:25:03 10° ESE visible
27 Feb 1.0 05:09:32 40° WSW 05:10:40 56° SSW 05:14:43 10° ESE visible
28 Feb 1.1 04:59:54 45° SW 05:00:23 48° SSW 05:04:23 10° ESE visible
01 Mar 1.5 04:50:19 40° S 04:50:19 40° S 04:53:59 10° SE visible
02 Mar 2.1 04:40:47 29° SSE 04:40:47 29° SSE 04:43:31 10° SE visible
03 Mar 2.8 04:31:19 20° SSE 04:31:19 20° SSE 04:32:59 10° SE visible
